Location: Seattle
(47.6064°N, 122.3308°W)
Time: 01:42:12
(UTC-08:00)

A-11 Canister half - Pass Details

Date: 29 November 2020
Orbit: 1524 x 1684 km, 47.3° (Epoch: 21 January)

Event Time Altitude Azimuth Distance (km) Brightness Sun altitude
Rises 12:56:27 0° 291° (WNW) 4,869 11.6 19.5°
Reaches altitude 10° 13:00:10 10° 281° (W) 3,855 11.2 19.3°
Maximum altitude 13:07:59 28° 227° (SW) 2,629 11.5 19.0°
Drops below altitude 10° 13:15:37 10° 173° (S) 3,740 12.4 18.6°
Sets 13:19:11 0° 162° (SSE) 4,700 12.4 18.4°
